Location: Unspecified
(43.4354°N, 0.0000°E)
Time: 12:57:27
(UTC+00:00)

A-11 Canister half - Pass Details

Date: 21 June 2019
Orbit: 1514 x 1685 km, 47.2° (Epoch: 22 July)

Event Time Altitude Azimuth Distance (km) Brightness Sun altitude
Rises 18:05:24 0° 294° (WNW) 4,750 13.4 15.3°
Reaches altitude 10° 18:08:56 10° 285° (WNW) 3,740 14.0 14.6°
Maximum altitude 18:16:47 31° 228° (SW) 2,416 10.6 13.3°
Drops below altitude 10° 18:24:31 10° 170° (S) 3,664 10.7 12.0°
Sets 18:27:58 0° 160° (SSE) 4,641 11.1 11.4°
